Time,TemperatureF,DewpointF,PressureIn,WindDirection,WindDirectionDegrees,WindSpeedMPH,WindSpeedGustMPH,Humidity,HourlyPrecipIn,Conditions,Clouds,dailyrainin,SoftwareType,DateUTC
2013-02-28 00:00:00,35.0,31.2,29.75,WSW,252,5.0,12.0,86,0.00,,BKN055,0.00,VWS V14.00,2013-02-28 05:00:00,
2013-02-28 00:10:00,34.9,31.1,29.74,WSW,252,1.0,9.0,86,0.00,,BKN055,0.00,VWS V14.00,2013-02-28 05:10:00,
2013-02-28 00:20:00,34.8,31.3,29.74,West,263,0.0,9.0,87,0.00,,BKN055,0.00,VWS V14.00,2013-02-28 05:20:00,
2013-02-28 00:30:00,34.8,31.3,29.74,WSW,240,2.0,7.0,87,0.00,,BKN055,0.00,VWS V14.00,2013-02-28 05:30:00,
2013-02-28 00:40:00,34.8,31.3,29.74,WSW,249,2.0,8.0,87,0.00,,BKN055,0.00,VWS V14.00,2013-02-28 05:40:00,
2013-02-28 00:50:00,34.8,31.6,29.74,SW,215,2.0,7.0,88,0.00,,BKN055,0.00,VWS V14.00,2013-02-28 05:50:00,
2013-02-28 01:00:00,34.8,31.6,29.74,WSW,238,5.0,12.0,88,0.00,,BKN055,0.00,VWS V14.00,2013-02-28 06:00:00,
2013-02-28 01:10:00,34.9,31.4,29.74,SW,232,6.0,11.0,87,0.00,,BKN055,0.00,VWS V14.00,2013-02-28 06:10:00,
2013-02-28 01:20:00,34.8,31.3,29.74,SW,219,5.0,11.0,87,0.00,,BKN055,0.00,VWS V14.00,2013-02-28 06:20:00,
2013-02-28 01:30:00,34.8,31.0,29.74,WSW,243,6.0,12.0,86,0.00,,BKN055,0.00,VWS V14.00,2013-02-28 06:30:00,
2013-02-28 01:40:00,34.8,31.3,29.75,SSW,199,5.0,12.0,87,0.00,,BKN055,0.00,VWS V14.00,2013-02-28 06:40:00,
2013-02-28 01:50:00,34.8,31.3,29.74,SSW,192,5.0,11.0,87,0.00,,BKN055,0.00,VWS V14.00,2013-02-28 06:50:00,
2013-02-28 02:00:00,34.7,31.2,29.75,SSW,193,1.0,11.0,87,0.00,,BKN055,0.00,VWS V14.00,2013-02-28 07:00:00,
2013-02-28 02:10:00,34.7,31.2,29.74,SSW,203,3.0,6.0,87,0.00,,BKN055,0.00,VWS V14.00,2013-02-28 07:10:00,
2013-02-28 02:20:00,34.7,31.2,29.74,WSW,243,2.0,10.0,87,0.00,,BKN055,0.00,VWS V14.00,2013-02-28 07:20:00,
2013-02-28 02:30:00,34.7,31.2,29.74,West,262,3.0,9.0,87,0.00,,BKN055,0.00,VWS V14.00,2013-02-28 07:30:00,
2013-02-28 02:40:00,34.7,31.2,29.74,SW,214,3.0,9.0,87,0.00,,BKN055,0.00,VWS V14.00,2013-02-28 07:40:00,
2013-02-28 02:50:00,34.6,31.1,29.74,WSW,245,2.0,9.0,87,0.00,,BKN055,0.00,VWS V14.00,2013-02-28 07:50:00,
2013-02-28 03:00:00,34.5,31.0,29.74,SW,232,4.0,9.0,87,0.00,,BKN055,0.00,VWS V14.00,2013-02-28 08:00:00,
2013-02-28 03:10:00,34.6,31.1,29.74,WSW,257,0.0,11.0,87,0.00,,BKN055,0.00,VWS V14.00,2013-02-28 08:10:00,
2013-02-28 03:20:00,34.4,30.6,29.74,West,280,8.0,11.0,86,0.00,,BKN055,0.00,VWS V14.00,2013-02-28 08:20:00,
2013-02-28 03:30:00,34.5,30.8,29.74,SW,227,3.0,12.0,86,0.00,,BKN055,0.00,VWS V14.00,2013-02-28 08:30:00,
2013-02-28 03:40:00,34.6,30.6,29.74,SSW,203,4.0,13.0,85,0.00,,BKN055,0.00,VWS V14.00,2013-02-28 08:40:00,
2013-02-28 03:50:00,34.5,30.5,29.74,WSW,252,5.0,12.0,85,0.00,,BKN055,0.00,VWS V14.00,2013-02-28 08:50:00,
2013-02-28 04:00:00,34.5,30.5,29.74,WSW,237,4.0,9.0,85,0.00,,BKN055,0.00,VWS V14.00,2013-02-28 09:00:00,
2013-02-28 04:10:00,34.5,30.5,29.74,SSW,202,2.0,12.0,85,0.00,,BKN055,0.00,VWS V14.00,2013-02-28 09:10:00,
2013-02-28 04:20:00,34.4,30.4,29.74,WSW,241,4.0,11.0,85,0.00,,BKN055,0.00,VWS V14.00,2013-02-28 09:20:00,
2013-02-28 04:30:00,34.4,30.4,29.75,SSW,198,5.0,11.0,85,0.00,,BKN055,0.00,VWS V14.00,2013-02-28 09:30:00,
2013-02-28 04:40:00,34.4,30.6,29.75,SW,236,4.0,8.0,86,0.00,,BKN055,0.00,VWS V14.00,2013-02-28 09:40:00,
2013-02-28 04:50:00,34.4,30.6,29.75,WSW,258,3.0,17.0,86,0.00,,BKN055,0.00,VWS V14.00,2013-02-28 09:50:00,
2013-02-28 05:00:00,34.4,30.6,29.75,SW,222,4.0,13.0,86,0.00,,BKN055,0.00,VWS V14.00,2013-02-28 10:00:00,
2013-02-28 05:10:00,34.3,30.8,29.75,SW,229,5.0,13.0,87,0.00,,BKN055,0.00,VWS V14.00,2013-02-28 10:10:00,
2013-02-28 05:20:00,34.2,30.7,29.75,WSW,240,11.0,12.0,87,0.00,,BKN055,0.00,VWS V14.00,2013-02-28 10:20:00,
2013-02-28 05:30:00,34.1,30.6,29.76,SSW,206,5.0,12.0,87,0.00,,BKN055,0.00,VWS V14.00,2013-02-28 10:30:00,
2013-02-28 05:40:00,34.0,30.8,29.76,SW,225,3.0,12.0,88,0.00,,BKN055,0.00,VWS V14.00,2013-02-28 10:40:00,
2013-02-28 05:50:00,33.9,31.0,29.76,WSW,254,2.0,10.0,89,0.00,,BKN055,0.00,VWS V14.00,2013-02-28 10:50:00,
2013-02-28 06:00:00,33.8,30.9,29.76,WSW,252,4.0,10.0,89,0.00,,BKN055,0.00,VWS V14.00,2013-02-28 11:00:00,
2013-02-28 06:10:00,33.8,31.2,29.76,WSW,245,2.0,12.0,90,0.00,,BKN055,0.00,VWS V14.00,2013-02-28 11:10:00,
2013-02-28 06:20:00,33.7,31.1,29.77,WSW,240,5.0,14.0,90,0.00,,BKN055,0.00,VWS V14.00,2013-02-28 11:20:00,
2013-02-28 06:30:00,33.8,31.2,29.77,WSW,255,10.0,13.0,90,0.00,,BKN055,0.00,VWS V14.00,2013-02-28 11:30:00,
2013-02-28 06:40:00,33.8,31.2,29.77,WSW,246,4.0,11.0,90,0.00,,BKN055,0.00,VWS V14.00,2013-02-28 11:40:00,
2013-02-28 06:50:00,33.8,31.2,29.77,SSW,201,5.0,11.0,90,0.00,,BKN055,0.00,VWS V14.00,2013-02-28 11:50:00,
2013-02-28 07:00:00,33.8,31.2,29.77,SSW,211,4.0,13.0,90,0.00,,BKN055,0.00,VWS V14.00,2013-02-28 12:00:00,
2013-02-28 07:10:00,33.9,31.3,29.77,WSW,239,3.0,13.0,90,0.00,,BKN055,0.00,VWS V14.00,2013-02-28 12:10:00,
2013-02-28 07:20:00,33.9,31.3,29.78,West,261,3.0,15.0,90,0.00,,BKN055,0.00,VWS V14.00,2013-02-28 12:20:00,
2013-02-28 07:30:00,34.0,31.1,29.78,WSW,253,3.0,13.0,89,0.00,,BKN055,0.00,VWS V14.00,2013-02-28 12:30:00,
2013-02-28 07:40:00,34.1,31.5,29.78,South,182,7.0,14.0,90,0.00,,BKN055,0.00,VWS V14.00,2013-02-28 12:40:00,
2013-02-28 07:50:00,34.1,31.5,29.79,West,267,10.0,14.0,90,0.00,,BKN055,0.00,VWS V14.00,2013-02-28 12:50:00,
2013-02-28 08:00:00,34.1,31.5,29.79,WSW,244,5.0,14.0,90,0.00,,BKN055,0.00,VWS V14.00,2013-02-28 13:00:00,
2013-02-28 08:10:00,34.1,31.5,29.79,West,267,8.0,17.0,90,0.00,,BKN055,0.00,VWS V14.00,2013-02-28 13:10:00,
2013-02-28 08:20:00,34.1,31.5,29.80,SW,219,5.0,13.0,90,0.00,,BKN055,0.00,VWS V14.00,2013-02-28 13:20:00,
2013-02-28 08:30:00,34.1,31.8,29.80,West,272,12.0,13.0,91,0.00,,BKN055,0.00,VWS V14.00,2013-02-28 13:30:00,
2013-02-28 08:40:00,34.3,32.0,29.80,SSW,198,3.0,12.0,91,0.00,,BKN055,0.00,VWS V14.00,2013-02-28 13:40:00,
2013-02-28 08:50:00,34.4,32.0,29.81,WSW,242,6.0,9.0,91,0.00,,BKN055,0.00,VWS V14.00,2013-02-28 13:50:00,
2013-02-28 09:00:00,34.4,32.0,29.81,WSW,250,5.0,12.0,91,0.00,,BKN055,0.00,VWS V14.00,2013-02-28 14:00:00,
2013-02-28 09:10:00,34.5,32.2,29.81,SSW,206,3.0,13.0,91,0.00,,BKN055,0.00,VWS V14.00,2013-02-28 14:10:00,
2013-02-28 09:20:00,34.7,32.1,29.81,West,269,7.0,15.0,90,0.00,,BKN055,0.00,VWS V14.00,2013-02-28 14:20:00,
2013-02-28 09:30:00,34.8,32.2,29.82,WSW,247,5.0,12.0,90,0.01,,BKN055,0.01,VWS V14.00,2013-02-28 14:30:00,
2013-02-28 09:40:00,35.0,32.4,29.82,WSW,258,6.0,16.0,90,0.01,,BKN055,0.01,VWS V14.00,2013-02-28 14:40:00,
2013-02-28 09:50:00,35.0,32.4,29.82,WSW,241,3.0,13.0,90,0.01,,BKN055,0.01,VWS V14.00,2013-02-28 14:50:00,
2013-02-28 10:00:00,35.1,32.5,29.82,SW,221,6.0,14.0,90,0.01,,BKN055,0.01,VWS V14.00,2013-02-28 15:00:00,
2013-02-28 10:10:00,35.3,32.4,29.82,WSW,252,5.0,13.0,89,0.01,,BKN055,0.01,VWS V14.00,2013-02-28 15:10:00,
2013-02-28 10:20:00,35.5,32.6,29.83,WSW,237,6.0,11.0,89,0.01,,BKN055,0.01,VWS V14.00,2013-02-28 15:20:00,
2013-02-28 10:30:00,35.6,32.7,29.83,West,269,4.0,10.0,89,0.01,,BKN055,0.01,VWS V14.00,2013-02-28 15:30:00,
2013-02-28 10:40:00,35.7,32.8,29.83,West,278,2.0,12.0,89,0.00,,BKN055,0.01,VWS V14.00,2013-02-28 15:40:00,
2013-02-28 10:50:00,35.7,33.1,29.83,South,172,7.0,10.0,90,0.00,,BKN055,0.01,VWS V14.00,2013-02-28 15:50:00,
2013-02-28 11:00:00,35.7,33.1,29.83,West,270,4.0,11.0,90,0.00,,BKN055,0.01,VWS V14.00,2013-02-28 16:00:00,
2013-02-28 11:10:00,35.8,33.2,29.83,West,275,4.0,13.0,90,0.00,,BKN055,0.01,VWS V14.00,2013-02-28 16:10:00,
2013-02-28 11:20:00,35.9,33.0,29.84,SW,236,5.0,10.0,89,0.00,,BKN055,0.01,VWS V14.00,2013-02-28 16:20:00,
2013-02-28 11:40:00,36.1,33.2,29.85,West,260,1.0,11.0,89,0.00,,BKN055,0.01,VWS V14.00,2013-02-28 16:40:00,
2013-02-28 11:50:00,36.2,33.3,29.85,SSW,207,3.0,10.0,89,0.00,,BKN055,0.01,VWS V14.00,2013-02-28 16:50:00,
2013-02-28 12:00:00,36.2,33.3,29.86,WSW,252,0.0,11.0,89,0.00,,BKN055,0.01,VWS V14.00,2013-02-28 17:00:00,
2013-02-28 12:10:00,36.3,33.4,29.86,SSW,206,6.0,13.0,89,0.00,,BKN055,0.01,VWS V14.00,2013-02-28 17:10:00,
2013-02-28 12:20:00,36.5,33.8,29.86,West,281,1.0,8.0,90,0.00,,BKN055,0.01,VWS V14.00,2013-02-28 17:20:00,
2013-02-28 12:30:00,36.5,33.6,29.86,WNW,284,5.0,11.0,89,0.00,,BKN055,0.01,VWS V14.00,2013-02-28 17:30:00,
2013-02-28 12:40:00,36.6,34.0,29.86,WSW,257,2.0,7.0,90,0.00,,BKN055,0.01,VWS V14.00,2013-02-28 17:40:00,
2013-02-28 12:50:00,36.5,33.6,29.86,SW,232,4.0,11.0,89,0.00,,BKN055,0.01,VWS V14.00,2013-02-28 17:50:00,
2013-02-28 13:00:00,36.6,33.7,29.85,West,277,2.0,9.0,89,0.00,,BKN055,0.01,VWS V14.00,2013-02-28 18:00:00,
2013-02-28 13:10:00,36.8,33.6,29.85,West,275,0.0,14.0,88,0.00,,BKN055,0.01,VWS V14.00,2013-02-28 18:10:00,
2013-02-28 13:20:00,36.9,33.7,29.85,WSW,245,3.0,10.0,88,0.00,,BKN055,0.01,VWS V14.00,2013-02-28 18:20:00,
2013-02-28 13:30:00,37.1,33.9,29.85,West,270,14.0,14.0,88,0.00,,BKN055,0.01,VWS V14.00,2013-02-28 18:30:00,
2013-02-28 13:40:00,37.3,34.1,29.85,SSW,207,3.0,14.0,88,0.00,,BKN055,0.01,VWS V14.00,2013-02-28 18:40:00,
2013-02-28 13:50:00,37.5,34.0,29.85,West,272,5.0,13.0,87,0.00,,BKN055,0.01,VWS V14.00,2013-02-28 18:50:00,
2013-02-28 14:00:00,37.6,34.1,29.85,WSW,245,9.0,11.0,87,0.00,,BKN055,0.01,VWS V14.00,2013-02-28 19:00:00,
2013-02-28 14:10:00,37.7,33.9,29.85,WNW,290,2.0,14.0,86,0.00,,BKN055,0.01,VWS V14.00,2013-02-28 19:10:00,
2013-02-28 14:20:00,37.9,34.4,29.85,West,263,13.0,16.0,87,0.00,,BKN055,0.01,VWS V14.00,2013-02-28 19:20:00,
2013-02-28 14:30:00,38.0,34.2,29.85,WSW,254,1.0,16.0,86,0.00,,BKN055,0.01,VWS V14.00,2013-02-28 19:30:00,
2013-02-28 14:40:00,38.0,33.9,29.86,WSW,254,3.0,11.0,85,0.00,,BKN055,0.01,VWS V14.00,2013-02-28 19:40:00,
2013-02-28 14:50:00,38.1,34.3,29.86,West,272,4.0,10.0,86,0.00,,BKN055,0.01,VWS V14.00,2013-02-28 19:50:00,
2013-02-28 15:00:00,38.1,34.0,29.86,NNW,327,3.0,12.0,85,0.00,,BKN055,0.01,VWS V14.00,2013-02-28 20:00:00,
2013-02-28 15:10:00,38.2,34.4,29.86,NW,304,2.0,11.0,86,0.00,,BKN055,0.01,VWS V14.00,2013-02-28 20:10:00,
2013-02-28 15:20:00,38.2,34.4,29.87,WNW,294,0.0,12.0,86,0.00,,BKN055,0.01,VWS V14.00,2013-02-28 20:20:00,
2013-02-28 15:30:00,38.3,34.5,29.87,WSW,254,2.0,9.0,86,0.00,,BKN055,0.01,VWS V14.00,2013-02-28 20:30:00,
2013-02-28 15:40:00,38.4,34.6,29.87,West,281,1.0,9.0,86,0.00,,BKN055,0.01,VWS V14.00,2013-02-28 20:40:00,
2013-02-28 15:50:00,38.5,34.4,29.87,WSW,256,10.0,11.0,85,0.00,,BKN055,0.01,VWS V14.00,2013-02-28 20:50:00,
2013-02-28 16:00:00,38.5,34.4,29.88,West,259,5.0,10.0,85,0.00,,BKN055,0.01,VWS V14.00,2013-02-28 21:00:00,
2013-02-28 16:10:00,38.5,34.4,29.88,West,273,3.0,9.0,85,0.00,,BKN055,0.01,VWS V14.00,2013-02-28 21:10:00,
2013-02-28 16:20:00,38.4,34.3,29.89,West,265,10.0,11.0,85,0.00,,BKN055,0.01,VWS V14.00,2013-02-28 21:20:00,
2013-02-28 16:30:00,38.4,34.3,29.88,West,266,4.0,12.0,85,0.00,,BKN055,0.01,VWS V14.00,2013-02-28 21:30:00,
2013-02-28 16:40:00,38.4,34.3,29.89,West,269,4.0,11.0,85,0.00,,BKN055,0.01,VWS V14.00,2013-02-28 21:40:00,
2013-02-28 16:50:00,38.4,34.3,29.89,WSW,252,2.0,11.0,85,0.00,,BKN055,0.01,VWS V14.00,2013-02-28 21:50:00,
2013-02-28 17:00:00,38.4,34.3,29.90,WNW,291,0.0,11.0,85,0.00,,BKN055,0.01,VWS V14.00,2013-02-28 22:00:00,
2013-02-28 17:10:00,38.4,34.3,29.91,WNW,293,2.0,10.0,85,0.00,,BKN055,0.01,VWS V14.00,2013-02-28 22:10:00,
2013-02-28 17:20:00,38.4,34.3,29.91,West,275,9.0,9.0,85,0.00,,BKN055,0.01,VWS V14.00,2013-02-28 22:20:00,
2013-02-28 17:30:00,38.3,34.2,29.92,WSW,247,5.0,10.0,85,0.00,,BKN055,0.01,VWS V14.00,2013-02-28 22:30:00,
2013-02-28 17:40:00,38.3,34.5,29.92,West,263,1.0,5.0,86,0.00,,BKN055,0.01,VWS V14.00,2013-02-28 22:40:00,
2013-02-28 17:50:00,38.3,34.5,29.92,SW,218,2.0,6.0,86,0.00,,BKN055,0.01,VWS V14.00,2013-02-28 22:50:00,
2013-02-28 18:00:00,38.3,34.5,29.93,West,261,0.0,6.0,86,0.00,,BKN055,0.01,VWS V14.00,2013-02-28 23:00:00,
2013-02-28 18:10:00,38.2,34.7,29.93,WSW,250,1.0,6.0,87,0.00,,BKN055,0.01,VWS V14.00,2013-02-28 23:10:00,
2013-02-28 18:20:00,38.0,34.8,29.94,WSW,253,5.0,7.0,88,0.00,,BKN055,0.01,VWS V14.00,2013-02-28 23:20:00,
2013-02-28 18:30:00,37.8,34.6,29.94,WSW,254,5.0,10.0,88,0.00,,BKN055,0.01,VWS V14.00,2013-02-28 23:30:00,
2013-02-28 18:40:00,37.6,34.7,29.94,SW,236,0.0,7.0,89,0.00,,BKN055,0.01,VWS V14.00,2013-02-28 23:40:00,
2013-02-28 18:50:00,37.3,34.6,29.94,WSW,245,4.0,7.0,90,0.00,,BKN055,0.01,VWS V14.00,2013-02-28 23:50:00,
2013-02-28 19:00:00,37.0,34.6,29.94,SW,223,3.0,7.0,91,0.00,,BKN055,0.01,VWS V14.00,2013-03-01 00:00:00,
2013-02-28 19:10:00,36.9,34.8,29.94,WSW,252,3.0,4.0,92,0.00,,BKN055,0.01,VWS V14.00,2013-03-01 00:10:00,
2013-02-28 19:20:00,36.8,34.7,29.95,WSW,252,1.0,6.0,92,0.00,,BKN055,0.01,VWS V14.00,2013-03-01 00:20:00,
2013-02-28 19:30:00,36.8,34.7,29.95,West,264,0.0,5.0,92,0.00,,BKN055,0.01,VWS V14.00,2013-03-01 00:30:00,
2013-02-28 19:40:00,36.7,34.9,29.95,SW,230,2.0,5.0,93,0.00,,BKN055,0.01,VWS V14.00,2013-03-01 00:40:00,
2013-02-28 19:50:00,36.7,34.9,29.95,West,265,3.0,5.0,93,0.00,,BKN055,0.01,VWS V14.00,2013-03-01 00:50:00,
2013-02-28 20:10:00,36.6,34.8,29.95,WSW,257,4.0,4.0,93,0.00,,BKN055,0.01,VWS V14.00,2013-03-01 01:10:00,
2013-02-28 20:20:00,36.5,34.9,29.95,WSW,257,2.0,6.0,94,0.00,,BKN055,0.01,VWS V14.00,2013-03-01 01:20:00,
2013-02-28 20:30:00,36.5,34.9,29.95,West,263,1.0,4.0,94,0.00,,BKN055,0.01,VWS V14.00,2013-03-01 01:30:00,
2013-02-28 20:40:00,36.4,34.8,29.95,WSW,249,0.0,4.0,94,0.00,,BKN055,0.01,VWS V14.00,2013-03-01 01:40:00,
2013-02-28 20:50:00,36.4,34.8,29.95,WSW,254,2.0,5.0,94,0.00,,BKN055,0.01,VWS V14.00,2013-03-01 01:50:00,
2013-02-28 21:00:00,36.4,34.8,29.95,WNW,287,0.0,9.0,94,0.00,,BKN055,0.01,VWS V14.00,2013-03-01 02:00:00,
2013-02-28 21:10:00,36.4,34.8,29.96,WSW,252,0.0,5.0,94,0.00,,BKN055,0.01,VWS V14.00,2013-03-01 02:10:00,
2013-02-28 21:20:00,36.5,34.9,29.96,WSW,244,1.0,6.0,94,0.00,,BKN055,0.01,VWS V14.00,2013-03-01 02:20:00,
2013-02-28 21:30:00,36.5,34.9,29.96,West,264,3.0,7.0,94,0.00,,BKN055,0.01,VWS V14.00,2013-03-01 02:30:00,
2013-02-28 21:40:00,36.5,34.9,29.96,WSW,254,2.0,6.0,94,0.00,,BKN055,0.01,VWS V14.00,2013-03-01 02:40:00,
2013-02-28 21:50:00,36.5,34.9,29.96,WSW,254,3.0,5.0,94,0.00,,BKN055,0.01,VWS V14.00,2013-03-01 02:50:00,
2013-02-28 22:00:00,36.5,34.9,29.96,WNW,300,1.0,5.0,94,0.00,,BKN055,0.01,VWS V14.00,2013-03-01 03:00:00,
2013-02-28 22:10:00,36.5,34.7,29.97,West,268,3.0,7.0,93,0.00,,BKN055,0.01,VWS V14.00,2013-03-01 03:10:00,
2013-02-28 22:20:00,36.6,34.8,29.97,WNW,283,0.0,7.0,93,0.00,,BKN055,0.01,VWS V14.00,2013-03-01 03:20:00,
2013-02-28 22:30:00,36.6,34.8,29.97,WSW,257,5.0,7.0,93,0.00,,BKN055,0.01,VWS V14.00,2013-03-01 03:30:00,
2013-02-28 22:40:00,36.5,34.7,29.97,West,276,1.0,10.0,93,0.00,,BKN055,0.01,VWS V14.00,2013-03-01 03:40:00,
2013-02-28 22:50:00,36.5,34.7,29.97,WNW,302,2.0,10.0,93,0.00,,BKN055,0.01,VWS V14.00,2013-03-01 03:50:00,
2013-02-28 23:00:00,36.5,34.7,29.97,West,263,2.0,7.0,93,0.00,,BKN055,0.01,VWS V14.00,2013-03-01 04:00:00,
2013-02-28 23:10:00,36.4,34.6,29.97,West,280,2.0,7.0,93,0.00,,BKN055,0.01,VWS V14.00,2013-03-01 04:10:00,
2013-02-28 23:20:00,36.4,34.6,29.98,WNW,293,0.0,7.0,93,0.00,,BKN055,0.01,VWS V14.00,2013-03-01 04:20:00,
2013-02-28 23:30:00,36.4,34.6,29.97,West,278,2.0,8.0,93,0.00,,BKN055,0.01,VWS V14.00,2013-03-01 04:30:00,
2013-02-28 23:40:00,36.3,34.5,29.97,West,273,2.0,7.0,93,0.00,,BKN055,0.01,VWS V14.00,2013-03-01 04:40:00,
2013-02-28 23:50:00,36.4,34.6,29.97,WNW,298,3.0,10.0,93,0.00,,BKN055,0.01,VWS V14.00,2013-03-01 04:50:00,